Location: Glencliff
(36.1226°N, 86.7183°W)
Time: 05:11:46
(UTC+00:00)

Resurs 1-4 Rocket - Pass Details

Date: 25 August 2019
Orbit: 799 x 815 km, 98.6° (Epoch: 19 September)

Event Time Altitude Azimuth Distance (km) Brightness Sun altitude
Rises 07:51:52 0° 7° (N) 3,313 6.0 -34.9°
Reaches altitude 10° 07:54:14 10° 3° (N) 2,379 5.1 -34.6°
Enters shadow 07:56:47 28° 350° (N) 1,462 3.7 -34.3°
